ALCOMSAT 1 (43039 NORAD) Tracking and Keplerian Element Data

This shows tracking and keplerian element data for the satellite.

Feedback or suggestion? Click here.




ElementValue
Catalog43039
NameALCOMSAT 1
Epoch Orbit2515
Epoch Day286.75805453
Epoch Year2024
RAAN121.2105
Inclination0.0262
Eccentricity0.0002932
Argument of Perigee96.4806
Mean Anonmoly52.2551
Mean Motion1.00271833
Decay Rate-1.86E-06
L11 43039U 17078A 24286.75805453 -.00000186 00000+0 00000+0 0 9995
L22 43039 0.0262 121.2105 0002932 96.4806 52.2551 1.00271833 25150



Live tracking and technical data element details for ALCOMSAT 1 (NORAD 43039). ALCOMSAT 1 can be tracked NOW for your location showing map with azimuth and elevation plus other details from your city location.







IsCatalogInMostPopularTable: catalog: 43039, numindb: 719
Update: records affected: 1



GetName: 43039 ALCOMSAT 1

Hit Count: updated at: Mon, 13 Jan 2025 20:37:23 GMT